Location: Eyeline Observatory
(43.2182°N, 78.8632°W)
Time: 02:58:19
(UTC-04:00)

Vanguard 2 - Pass Details

Date: 27 January 2018
Orbit: 552 x 2940 km, 32.9° (Epoch: 22 May)

Event Time Altitude Azimuth Distance (km) Brightness Sun altitude
Rises 07:45:45 0° 268° (W) 4,851 11.1 0.8°
Reaches altitude 10° 07:49:23 10° 255° (WSW) 4,215 10.9 1.4°
Maximum altitude 07:58:21 25° 207° (SSW) 3,860 11.2 2.8°
Drops below altitude 10° 08:10:01 10° 162° (SSE) 5,573 12.8 4.7°
Sets 08:15:56 0° 151° (SSE) 6,744 13.6 5.6°
